"Pseudo-MPEC" for RLF3031

Created 2021 Jun 20 19:07:23 UT using Find_Orb

Click here for an explanation of pseudo-MPECs

 
 Astrometry: 
     RLF3031 KC2021 06 01uc0AstrometryK81d]rUAEoCpwiq#7v1wb%B,;redacted;7@j*;W34
     RLF3031 KC2021 06 01l%P44KRclickY@PO=?Ghere@0w+a90*EKuf;Pp0Bffor5L!#w-\=W34
     RLF3031 KC2021 06 01]e4Vf.gc9NI2N.hC^8SZ%B-ZE*explanationg'KGj[3yHw8wSc/W34

Station data:
(W34) Squirrel Valley Observatory, Columbus  (N35.225393 W82.154700)
   US/North Carolina.  Observer R. L. Flynn. 0.35-m f/1.9 Schmidt-Cassegrain
   + CCD.

Orbital elements:  RLF3031
   Perihelion 2021 Feb 12.912212 +/- 32.3156 TT = 21:53:35 (JD 2459258.412212)
Epoch 2021 Jun  1.0 TT = JDT 2459366.5   Earth MOID: 0.0117   AutoNEOCP
M 108.70275062 +/- 37.060179        (J2000 ecliptic)
n   1.00568947 +/- 0.47029          Peri.  266.47459 +/- 100.85994
a   0.98664316 +/- 0.307583         Node   227.25417 +/- 58.025272
e   0.0689633 +/- 0.29037           Incl.    7.61203 +/- 13.997770
P   0.98/357.96d           H 23.2   G  0.15   U 12.2  SR
q 0.91860093 +/- 0.0841235    Q 1.05468539 +/- 22.7073
From 3 observations 2021 June 1 (18.0 min); mean residual 0".30
Residuals in arcseconds: 
210601 W34  .14-  .36+    210601 W34  .22+  .55-    210601 W34  .07-  .19+    

Ephemerides (geocentric):
Date (UTC) HH   RA              Dec         delta   r     elong  mag " sig PA
---- -- -- --  -------------   -----------  ------ ------ -----  --- ---- ---
2021 06 20 19  16 02 01.903   +55 54 49.54  .09378 1.0318  97.0 20.9  41d  64
2021 06 20 20  16 02 05.853   +55 53 40.97  .09386 1.0318  97.0 20.9  42d  64
2021 06 20 21  16 02 09.796   +55 52 32.46  .09394 1.0319  97.0 20.9  42d  64
2021 06 20 22  16 02 13.731   +55 51 24.03  .09402 1.0319  97.0 20.9  42d  64
2021 06 20 23  16 02 17.658   +55 50 15.67  .09410 1.0319  97.0 20.9  42d  64
2021 06 21 00  16 02 21.578   +55 49 07.37  .09418 1.0320  97.0 20.9  42d  64
2021 06 21 01  16 02 25.491   +55 47 59.15  .09426 1.0320  97.0 20.9  42d  64
2021 06 21 02  16 02 29.396   +55 46 50.99  .09434 1.0320  97.0 20.9  42d  64
2021 06 21 03  16 02 33.294   +55 45 42.91  .09442 1.0321  97.0 20.9  42d  64
2021 06 21 04  16 02 37.184   +55 44 34.89  .09450 1.0321  97.1 20.9  42d  64
2021 06 21 05  16 02 41.067   +55 43 26.95  .09458 1.0321  97.1 20.9  42d  64
2021 06 21 06  16 02 44.942   +55 42 19.07  .09466 1.0322  97.1 20.9  42d  64
2021 06 21 07  16 02 48.810   +55 41 11.26  .09473 1.0322  97.1 20.9  42d  64
2021 06 21 08  16 02 52.671   +55 40 03.52  .09481 1.0322  97.1 20.9  42d  64
2021 06 21 09  16 02 56.525   +55 38 55.84  .09489 1.0323  97.1 20.9  42d  64
2021 06 21 10  16 03 00.371   +55 37 48.24  .09497 1.0323  97.1 20.9  42d  64
2021 06 21 11  16 03 04.211   +55 36 40.70  .09505 1.0324  97.1 20.9  42d  64
2021 06 21 12  16 03 08.043   +55 35 33.23  .09513 1.0324  97.1 20.9  42d  64
2021 06 21 13  16 03 11.868   +55 34 25.82  .09521 1.0324  97.1 20.9  42d  64
2021 06 21 14  16 03 15.685   +55 33 18.48  .09529 1.0325  97.1 20.9  42d  64
2021 06 21 15  16 03 19.496   +55 32 11.21  .09537 1.0325  97.2 20.9  42d  64
2021 06 21 16  16 03 23.300   +55 31 04.00  .09545 1.0325  97.2 20.9  42d  64
2021 06 21 17  16 03 27.096   +55 29 56.86  .09553 1.0326  97.2 20.9  42d  64
2021 06 21 18  16 03 30.886   +55 28 49.79  .09560 1.0326  97.2 20.9  42d  64
2021 06 21 19  16 03 34.669   +55 27 42.78  .09568 1.0326  97.2 20.9  42d  64
2021 06 21 20  16 03 38.445   +55 26 35.84  .09576 1.0327  97.2 20.9  42d  64
2021 06 21 21  16 03 42.213   +55 25 28.96  .09584 1.0327  97.2 20.9  42d  64
2021 06 21 22  16 03 45.975   +55 24 22.15  .09592 1.0327  97.2 20.9  42d  64
2021 06 21 23  16 03 49.730   +55 23 15.40  .09600 1.0328  97.2 20.9  42d  64
2021 06 22 00  16 03 53.479   +55 22 08.71  .09608 1.0328  97.2 20.9  42d  64
2021 06 22 01  16 03 57.220   +55 21 02.09  .09616 1.0328  97.3 20.9  42d  64
2021 06 22 02  16 04 00.955   +55 19 55.54  .09624 1.0329  97.3 20.9  42d  64
2021 06 22 03  16 04 04.683   +55 18 49.04  .09631 1.0329  97.3 20.9  42d  64
2021 06 22 04  16 04 08.404   +55 17 42.61  .09639 1.0329  97.3 20.9  42d  64
2021 06 22 05  16 04 12.118   +55 16 36.25  .09647 1.0330  97.3 20.9  42d  64
2021 06 22 06  16 04 15.826   +55 15 29.94  .09655 1.0330  97.3 20.9  42d  64
2021 06 22 07  16 04 19.527   +55 14 23.70  .09663 1.0331  97.3 20.9  42d  64
2021 06 22 08  16 04 23.222   +55 13 17.52  .09671 1.0331  97.3 20.9  42d  64
2021 06 22 09  16 04 26.910   +55 12 11.41  .09679 1.0331  97.3 20.9  42d  64
2021 06 22 10  16 04 30.591   +55 11 05.35  .09686 1.0332  97.3 20.9  42d  64
2021 06 22 11  16 04 34.266   +55 09 59.36  .09694 1.0332  97.3 20.9  42d  64
2021 06 22 12  16 04 37.934   +55 08 53.43  .09702 1.0332  97.4 20.9  42d  64
2021 06 22 13  16 04 41.596   +55 07 47.56  .09710 1.0333  97.4 20.9  42d  64
2021 06 22 14  16 04 45.251   +55 06 41.75  .09718 1.0333  97.4 20.9  42d  64
2021 06 22 15  16 04 48.900   +55 05 36.01  .09726 1.0333  97.4 20.9  42d  64
2021 06 22 16  16 04 52.542   +55 04 30.32  .09733 1.0334  97.4 20.9  42d  64
2021 06 22 17  16 04 56.178   +55 03 24.69  .09741 1.0334  97.4 20.9  42d  64
2021 06 22 18  16 04 59.808   +55 02 19.13  .09749 1.0334  97.4 20.9  42d  64